PBO Station Position Time Series. Reference Frame : NAM14
Format Version,1.1.0
4-character ID,JRO1
Station name,Johnston_Ridge_O
Begin Date, 1997-05-23
End Date, 2019-10-07
Release Date, 2019-10-08
Reference position, 46.2751244988 North Latitude, -122.2176162915 East Longitude, 1275.62143 meters elevation,
Date, North (mm), East (mm), Vertical (mm), North Std. Deviation (mm), East Std. Deviation (mm),              Vertical Std. Deviation (mm), Quality,
1997-05-23,0.00, 0.00, 0.00, 2.61, 1.96, 8.55, repro,
1997-05-24,-0.06, -1.19, -8.30, 2.48, 1.89, 8.22, repro,
1997-05-25,0.85, -0.35, -10.43, 2.51, 1.91, 8.26, repro,
1997-05-26,0.51, -0.80, -7.98, 2.59, 1.93, 8.50, repro,
1997-05-27,-0.40, -0.73, -5.13, 2.63, 1.99, 8.72, repro,
1997-05-28,1.01, -1.16, -2.34, 2.79, 2.06, 8.99, repro,
1997-06-07,1.55, -1.75, -0.52, 2.59, 1.94, 8.83, repro,
1997-06-08,0.41, -1.27, -5.09, 2.49, 1.86, 8.13, repro,
1997-06-09,1.64, -1.25, -6.53, 2.56, 1.93, 8.38, repro,
1997-06-10,0.47, -1.76, -3.95, 2.65, 2.00, 8.68, repro,
1997-06-11,3.06, -2.03, -2.68, 2.59, 1.91, 8.41, repro,
1997-06-12,2.80, -0.40, -7.41, 2.58, 1.92, 8.36, repro,
1997-06-13,1.69, -2.54, -1.90, 2.51, 1.87, 8.22, repro,
1997-06-14,-0.31, -1.28, -7.01, 2.54, 1.94, 8.43, repro,
1997-06-15,0.54, -2.50, -0.16, 2.52, 1.86, 8.22, repro,
1997-06-16,1.05, -2.33, -8.86, 2.48, 1.84, 8.04, repro,
1997-06-17,-1.47, -2.99, 2.07, 3.06, 2.17, 9.75, repro,
1997-06-18,0.28, -2.19, 0.95, 2.51, 1.85, 8.07, repro,
1997-06-19,1.68, -0.71, -5.48, 2.54, 1.92, 8.29, repro,
1997-06-20,2.23, -0.17, -1.34, 2.66, 2.00, 8.52, repro,
1997-06-21,1.35, -2.88, -10.12, 2.50, 1.86, 8.10, repro,
1997-06-22,3.02, -0.55, -3.51, 2.55, 1.84, 8.16, repro,
1997-06-23,2.81, -0.60, -13.16, 2.49, 1.86, 8.07, repro,
1997-06-24,1.04, -0.92, -10.71, 2.58, 1.94, 8.45, repro,
1997-06-25,2.74, -1.60, -2.53, 2.54, 1.95, 8.40, repro,
1997-06-26,1.09, -2.06, -1.95, 2.51, 1.87, 8.12, repro,
1997-06-27,1.18, -2.01, -3.97, 2.57, 1.95, 8.38, repro,
1997-06-28,2.19, -0.99, -3.88, 2.54, 1.89, 8.21, repro,
1997-06-29,1.16, -1.78, -0.02, 2.45, 1.82, 8.00, repro,
1997-06-30,0.13, -2.47, -3.66, 2.50, 1.88, 8.19, repro,
1997-07-01,0.48, -2.38, -7.51, 2.76, 1.99, 8.80, repro,
1997-07-02,2.10, -1.78, -1.36, 2.56, 1.91, 8.33, repro,
1997-07-03,2.11, -1.66, -3.68, 2.48, 1.86, 8.10, repro,
1997-07-04,2.25, -3.04, -0.82, 2.49, 1.86, 8.08, repro,
1997-07-05,-1.35, -4.11, 10.38, 2.57, 1.88, 8.39, repro,
1997-07-06,0.43, -3.70, 2.02, 2.49, 1.88, 8.14, repro,
1997-07-07,0.18, -2.37, -3.56, 2.49, 1.86, 8.08, repro,
1997-07-08,0.19, -3.91, 0.18, 2.59, 1.89, 8.33, repro,
1997-07-09,-1.57, -3.74, -1.76, 2.58, 1.93, 8.25, repro,
1997-07-10,0.76, -2.55, -8.90, 2.48, 1.85, 8.13, repro,
1997-07-11,3.01, -2.88, -9.80, 2.50, 1.88, 8.18, repro,
1997-07-12,3.04, -4.23, -11.45, 2.53, 1.90, 8.37, repro,
1997-07-13,1.54, -4.68, -1.96, 2.48, 1.83, 8.04, repro,
1997-07-14,0.75, -4.41, 3.51, 2.55, 1.86, 8.24, repro,
1997-07-15,2.77, -3.93, -6.73, 2.53, 1.87, 8.23, repro,
1997-07-16,1.04, -4.55, -3.05, 2.55, 1.87, 8.24, repro,
1997-07-17,3.29, -1.98, 2.25, 4.48, 3.14, 14.86, repro,
1997-07-18,0.58, -6.88, -8.12, 2.47, 1.85, 8.12, repro,
1997-07-19,1.09, -4.57, -4.92, 2.59, 1.93, 8.52, repro,
1997-07-20,-1.13, -5.56, 8.63, 2.58, 1.88, 8.38, repro,
1997-07-21,0.53, -4.90, -1.59, 2.50, 1.86, 8.11, repro,
1997-07-22,-0.20, -6.15, -3.34, 2.50, 1.86, 8.15, repro,
1997-07-23,-1.82, -6.33, -2.00, 2.66, 1.93, 8.66, repro,
1997-07-24,-0.90, -4.51, -6.06, 2.58, 1.93, 8.59, repro,
1997-07-25,0.70, -5.97, -12.36, 2.61, 1.93, 8.66, repro,
1997-07-26,1.50, -6.45, -7.59, 2.60, 1.90, 8.34, repro,
1997-07-27,-0.20, -6.09, 1.37, 2.56, 1.91, 8.39, repro,
1997-07-28,1.18, -6.17, 7.07, 2.53, 1.87, 8.12, repro,
1997-07-29,-2.20, -6.30, -0.47, 2.59, 1.90, 8.43, repro,
1997-07-30,0.22, -4.73, -1.81, 2.61, 1.89, 8.51, repro,
1997-07-31,0.11, -6.72, -3.17, 2.65, 1.96, 8.59, repro,
1997-08-01,-1.08, -7.25, -3.62, 2.67, 1.98, 8.74, repro,
1997-08-02,0.35, -6.30, -3.02, 2.50, 1.83, 7.94, repro,
1997-08-03,2.82, -6.46, -1.68, 2.53, 1.87, 8.14, repro,
1997-08-04,0.21, -8.57, 2.89, 2.59, 1.87, 8.36, repro,
1997-08-05,0.19, -6.96, -3.30, 2.55, 1.88, 8.15, repro,
1997-08-06,0.58, -8.46, -6.23, 2.51, 1.85, 7.98, repro,
1997-08-07,-0.65, -8.53, 1.03, 2.62, 1.88, 8.34, repro,
1997-08-08,-1.40, -6.43, 1.17, 2.67, 1.89, 8.50, repro,
1997-08-09,0.52, -6.89, 5.52, 2.50, 1.84, 8.05, repro,
1997-08-10,0.48, -5.99, -1.18, 2.58, 1.88, 8.38, repro,
1997-08-11,0.28, -6.95, 0.73, 2.49, 1.86, 8.09, repro,
1997-08-12,0.75, -6.80, -3.13, 2.61, 1.86, 8.30, repro,
1997-08-13,0.45, -7.34, 1.13, 2.50, 1.84, 7.99, repro,
1997-08-14,0.35, -7.70, 6.65, 2.58, 1.87, 8.39, repro,
1997-08-15,1.51, -6.19, 1.97, 2.56, 1.91, 8.18, repro,
1997-08-16,0.68, -6.77, 4.44, 2.54, 1.86, 8.15, repro,
1997-08-17,1.70, -7.04, 0.45, 2.61, 1.91, 8.33, repro,
1997-08-18,0.63, -6.87, -7.06, 2.53, 1.88, 8.21, repro,
1997-08-19,-0.65, -7.32, 4.68, 2.60, 1.90, 8.46, repro,
1997-08-20,3.16, -6.63, 5.41, 2.66, 1.94, 8.73, repro,
1997-08-21,-1.14, -7.35, 2.11, 2.60, 1.93, 8.46, repro,
1997-08-22,-2.25, -10.28, 15.14, 2.82, 2.00, 9.07, repro,
1997-08-23,0.09, -4.16, 2.98, 2.70, 1.94, 8.85, repro,
1997-08-24,0.35, -6.69, 4.64, 2.70, 2.02, 8.82, repro,
1997-08-25,0.72, -6.68, 4.79, 2.69, 1.91, 8.72, repro,
1997-08-26,-4.05, -8.61, 0.48, 2.50, 1.86, 8.19, repro,
1997-08-27,1.47, -4.67, -2.78, 2.51, 1.86, 8.14, repro,
1997-08-28,2.85, -4.51, -3.29, 2.60, 1.91, 8.58, repro,
1997-08-29,2.45, -4.64, 7.25, 2.53, 1.85, 8.07, repro,
1997-08-30,-1.04, -7.15, 0.02, 2.50, 1.84, 8.07, repro,
1997-08-31,2.04, -6.55, 2.29, 2.62, 1.88, 8.40, repro,
1997-09-01,0.28, -7.27, 3.55, 2.49, 1.86, 8.06, repro,
1997-09-02,1.22, -6.83, -0.79, 2.46, 1.83, 7.96, repro,
1997-09-03,0.31, -3.60, -0.43, 2.56, 1.92, 8.21, repro,
1997-09-04,-0.49, -5.65, 3.98, 2.61, 1.95, 8.37, repro,
1997-09-05,1.69, -6.82, -1.39, 2.47, 1.83, 8.09, repro,
1997-09-06,0.46, -6.18, -3.40, 2.48, 1.84, 8.06, repro,
1997-09-07,3.41, -4.98, 5.45, 2.52, 1.87, 8.19, repro,
1997-09-08,1.18, -6.54, 6.13, 2.47, 1.83, 8.02, repro,
1997-09-09,0.45, -5.88, 10.72, 2.77, 2.11, 9.15, repro,
1997-09-10,0.83, -5.27, 6.12, 2.48, 1.83, 8.10, repro,
1997-09-11,2.42, -5.65, -4.01, 2.58, 1.87, 8.48, repro,
1997-09-12,2.59, -4.70, -0.38, 2.58, 1.85, 8.27, repro,
1997-09-13,4.39, -5.92, -2.51, 2.48, 1.81, 8.01, repro,
1997-09-14,-3.50, -5.83, -3.01, 2.49, 1.85, 8.14, repro,
1997-09-15,-0.30, -5.84, 5.87, 2.51, 1.86, 8.11, repro,
1997-09-16,2.50, -6.78, -4.10, 2.47, 1.82, 8.01, repro,
1997-09-17,-1.81, -9.16, -3.26, 2.49, 1.85, 8.09, repro,
1997-09-18,2.57, -6.10, -5.90, 2.51, 1.87, 8.13, repro,
1997-09-19,2.91, -5.03, -6.35, 2.49, 1.83, 8.03, repro,
1997-09-20,1.96, -5.79, -5.47, 2.51, 1.90, 8.21, repro,
1997-09-21,3.17, -3.53, -7.86, 2.45, 1.83, 7.91, repro,
1997-10-07,4.07, -1.32, -7.66, 5.69, 3.80, 18.16, repro,
1997-10-08,2.27, -4.64, 2.33, 2.46, 1.83, 8.06, repro,
1997-10-09,-5.20, -9.23, -7.19, 2.50, 1.86, 8.22, repro,
1997-10-10,2.83, -5.47, -8.17, 2.56, 1.93, 8.50, repro,
1997-10-11,3.52, -1.31, -2.76, 2.50, 1.84, 8.00, repro,
1997-10-12,2.95, -3.45, -12.16, 2.53, 1.86, 8.12, repro,
1997-10-13,3.82, -3.20, -16.70, 2.63, 1.90, 8.26, repro,
1997-10-14,1.89, -2.05, -3.23, 2.75, 2.02, 8.88, repro,
1997-10-15,1.64, -3.35, -7.45, 2.63, 1.93, 8.45, repro,
1997-10-16,2.04, -3.64, -12.14, 2.63, 1.95, 8.66, repro,
1997-10-17,2.67, -3.61, -7.36, 3.02, 2.13, 9.69, repro,
1997-10-18,2.32, -4.47, -8.43, 2.63, 1.88, 8.19, repro,
1997-10-19,3.02, -3.67, -12.72, 2.59, 1.91, 8.35, repro,
1997-10-21,2.90, -5.12, -6.58, 2.61, 1.92, 8.47, repro,
1997-10-22,2.67, -4.27, -4.45, 2.70, 1.98, 8.80, repro,
1997-10-25,2.66, -3.12, -4.12, 2.76, 1.97, 8.75, repro,
1997-10-26,3.51, -4.23, -9.91, 2.63, 1.94, 8.61, repro,
1997-10-27,3.44, -5.00, -7.23, 2.77, 1.96, 8.76, repro,
1997-10-28,3.16, -4.09, -4.53, 2.76, 1.97, 8.85, repro,
1997-10-29,1.05, -5.27, -5.38, 2.70, 2.02, 8.90, repro,
1997-10-30,-1.99, -7.40, -14.96, 2.59, 2.00, 8.69, repro,
1997-10-31,3.61, -4.25, -2.22, 2.71, 2.10, 9.08, repro,
1997-11-01,4.87, -3.13, -16.79, 2.64, 1.92, 8.47, repro,
1997-11-02,1.96, -3.61, -4.08, 2.65, 1.96, 8.78, repro,
1997-11-03,0.01, -4.78, 4.55, 2.73, 2.04, 8.95, repro,
1997-11-04,2.32, -2.64, -12.35, 2.70, 2.01, 8.70, repro,
1997-11-06,3.28, -4.31, -2.11, 3.08, 2.15, 9.60, repro,
1997-11-07,1.96, -3.71, -13.34, 2.85, 2.09, 9.02, repro,
1997-11-08,0.60, -2.53, -7.76, 2.60, 1.93, 8.35, repro,
1997-11-09,1.97, -1.57, -2.25, 2.66, 1.99, 8.45, repro,
1997-11-10,2.18, -3.06, 0.26, 2.63, 2.00, 8.90, repro,
1997-11-11,3.63, -4.76, 5.74, 2.70, 2.02, 8.90, repro,
1997-11-12,1.00, -4.96, 1.98, 2.62, 1.92, 8.40, repro,
1997-11-13,15.25, -2.07, -2.28, 2.56, 1.92, 8.43, repro,
1997-11-14,9.33, -8.34, -4.72, 2.69, 1.95, 8.65, repro,
1997-11-15,5.44, -4.23, -4.64, 2.70, 1.97, 8.68, repro,
1997-11-16,6.53, -5.84, 2.43, 2.60, 1.93, 8.38, repro,
1997-11-18,2.56, -2.90, 8.17, 2.78, 2.11, 9.36, repro,
1997-11-19,-1.60, -5.85, 15.22, 2.78, 1.96, 8.74, repro,
1997-11-20,1.83, -5.63, 5.13, 2.86, 2.16, 9.49, repro,
1997-11-21,2.94, -1.27, -7.21, 3.61, 2.63, 11.41, repro,
1997-11-23,-0.27, -5.71, 8.32, 2.92, 2.05, 9.34, repro,
1997-11-24,1.91, -3.47, 4.07, 2.84, 2.01, 9.09, repro,
1997-11-25,0.57, -1.05, 3.57, 2.70, 1.98, 8.92, repro,
1997-11-27,0.91, -3.36, 8.84, 2.69, 2.03, 8.86, repro,
1997-11-28,-3.19, -4.62, 9.74, 2.61, 1.91, 8.69, repro,
1997-11-29,-1.37, -4.35, -0.75, 2.69, 1.95, 8.63, repro,
1997-11-30,4.38, -3.21, -4.10, 2.52, 1.87, 8.27, repro,
1997-12-01,1.13, -0.67, -1.50, 2.80, 2.06, 9.22, repro,
1997-12-02,0.48, -1.91, 2.70, 2.58, 1.85, 8.36, repro,
1997-12-04,3.18, -2.52, 1.76, 2.69, 1.99, 9.06, repro,
1997-12-05,2.15, -2.97, -11.58, 2.82, 1.96, 9.07, repro,
1997-12-06,-0.61, -3.86, -0.64, 2.75, 1.93, 8.65, repro,
1997-12-08,-1.93, -1.99, 10.53, 2.68, 1.91, 8.54, repro,
1997-12-09,0.03, -0.52, -7.97, 2.47, 1.84, 8.00, repro,
1997-12-10,1.72, -0.81, -12.10, 2.73, 1.92, 8.77, repro,
1997-12-11,0.98, -2.26, -12.88, 2.62, 1.93, 8.71, repro,
1997-12-12,-0.24, -2.41, -5.63, 2.56, 1.83, 8.22, repro,
1997-12-14,-3.70, -3.32, 3.83, 2.53, 1.84, 8.31, repro,
1997-12-15,-0.04, -3.29, 12.13, 2.75, 1.97, 8.90, repro,
1997-12-16,-3.66, -6.13, 7.92, 2.74, 2.02, 9.13, repro,
1997-12-17,-0.15, -0.80, 6.70, 2.70, 1.93, 8.75, repro,
1997-12-18,2.63, 1.31, -8.28, 2.68, 1.96, 8.35, repro,
1997-12-19,1.30, -0.88, -4.05, 2.63, 1.98, 8.45, repro,
1997-12-20,-0.97, -2.11, 0.13, 2.51, 1.92, 8.04, repro,
1997-12-21,-0.66, -2.70, -0.90, 2.67, 2.02, 8.76, repro,
1997-12-22,0.88, -1.96, -16.90, 2.53, 1.92, 8.45, repro,
1997-12-23,0.67, -2.39, -11.11, 2.55, 1.93, 8.37, repro,
1997-12-24,0.77, -1.47, -17.52, 2.74, 2.12, 9.29, repro,
1997-12-25,1.01, -0.67, -15.75, 2.63, 1.92, 8.23, repro,
1997-12-26,4.78, -0.32, -13.54, 2.61, 1.92, 8.19, repro,
1997-12-27,2.07, -0.78, -22.15, 2.52, 1.90, 8.37, repro,
1997-12-28,2.53, 1.86, -17.74, 2.60, 2.00, 8.64, repro,
1997-12-29,2.49, -2.67, -10.39, 2.52, 1.98, 8.47, repro,
1997-12-30,3.03, -1.96, -3.29, 2.79, 2.19, 9.41, repro,
1998-01-01,-0.30, -5.50, -5.93, 2.54, 1.85, 8.00, repro,
1998-01-02,2.77, -3.71, -3.51, 2.87, 2.20, 10.10, repro,
1998-01-03,2.00, -3.67, 6.36, 2.47, 1.85, 8.19, repro,
1998-01-04,0.42, -3.61, -3.41, 2.73, 2.16, 9.32, repro,
1998-01-05,2.72, -3.80, -9.30, 2.52, 1.93, 8.39, repro,
1998-01-06,3.85, -1.36, -18.92, 2.56, 1.99, 8.53, repro,
1998-01-07,3.91, -0.92, -31.57, 2.88, 2.24, 9.77, repro,
1998-01-08,0.11, -2.24, -11.76, 2.69, 2.03, 8.93, repro,
1998-01-09,1.29, 2.35, -2.80, 2.58, 1.93, 8.51, repro,
1998-01-10,4.68, -1.27, -9.18, 2.58, 1.93, 8.32, repro,
1998-01-11,3.03, -0.79, -8.30, 2.53, 1.92, 8.34, repro,
1998-01-12,4.75, -1.86, -11.34, 2.67, 2.00, 8.78, repro,
1998-01-13,4.38, -4.04, -20.42, 2.69, 2.13, 9.23, repro,
1998-01-14,-0.00, -7.33, -5.46, 2.44, 1.82, 7.94, repro,
1998-01-15,1.38, -3.77, 1.43, 2.57, 1.98, 8.65, repro,
1998-01-16,5.07, -2.26, -5.34, 2.73, 2.20, 9.36, repro,
1998-01-17,3.20, -2.32, -4.87, 2.50, 1.90, 8.14, repro,
1998-01-18,-1.93, -2.53, -0.43, 2.62, 1.96, 8.62, repro,
1998-01-19,3.76, -0.34, -12.63, 2.50, 1.91, 8.28, repro,
1998-01-20,3.59, -0.83, -11.88, 2.44, 1.85, 7.99, repro,
1998-01-21,2.73, -0.34, -8.03, 2.58, 1.94, 8.40, repro,
1998-01-22,3.29, -1.81, -10.94, 2.57, 1.94, 8.36, repro,
1998-01-23,1.13, -4.21, -12.29, 2.63, 1.97, 8.74, repro,
1998-01-24,0.11, -4.35, -4.53, 2.53, 1.86, 8.14, repro,
1998-01-25,3.32, -1.88, -1.71, 2.47, 1.88, 8.06, repro,
1998-01-26,-1.09, -3.17, -7.72, 2.46, 1.81, 7.98, repro,
1998-01-27,3.35, 0.08, -9.88, 2.66, 1.99, 8.79, repro,
1998-01-28,3.09, -2.97, -1.65, 2.52, 1.86, 8.19, repro,
1998-01-29,-3.48, -0.02, -1.69, 2.50, 1.84, 8.04, repro,
1998-01-30,2.38, 0.49, -11.66, 2.53, 1.92, 8.30, repro,
1998-01-31,2.91, -1.15, 0.47, 2.42, 1.85, 7.88, repro,
1998-02-01,0.23, -0.57, -6.42, 2.48, 1.84, 8.00, repro,
1998-02-02,0.10, -3.89, 7.66, 2.37, 1.78, 7.68, repro,
1998-02-03,2.78, 1.36, -10.16, 2.39, 1.81, 7.81, repro,
1998-02-05,-2.61, -5.97, 6.23, 2.54, 1.89, 8.26, repro,
1998-02-06,5.67, 1.73, -12.72, 2.44, 1.84, 8.00, repro,
1998-02-07,-2.22, -2.42, -3.31, 2.41, 1.80, 7.75, repro,
1998-02-08,-1.81, -3.60, -2.16, 2.47, 1.92, 8.28, repro,
1998-02-09,1.13, -0.77, -3.64, 2.52, 1.88, 8.20, repro,
1998-02-10,0.09, -1.87, -10.73, 2.44, 1.81, 7.89, repro,
1998-02-11,0.63, -3.36, -6.82, 2.57, 1.94, 8.47, repro,
1998-02-12,-0.58, -4.60, 2.57, 2.48, 1.85, 8.05, repro,
1998-02-13,2.28, -0.49, -7.34, 2.50, 1.87, 8.21, repro,
1998-02-14,7.46, -0.22, 5.53, 2.59, 1.95, 8.50, repro,
1998-02-15,1.97, -1.03, -4.55, 2.57, 1.95, 8.33, repro,
1998-02-16,5.93, 1.12, -2.35, 2.42, 1.88, 7.97, repro,
1998-02-17,7.32, -0.22, 8.04, 2.69, 1.95, 8.54, repro,
1998-02-18,1.62, -0.41, -8.91, 3.03, 2.41, 9.92, repro,
1998-02-19,-1.96, -3.28, -3.67, 2.50, 1.90, 8.26, repro,
1998-02-20,2.87, -0.63, -2.15, 2.58, 1.96, 8.55, repro,
1998-02-21,-2.56, -4.05, 2.87, 2.43, 1.87, 8.05, repro,
1998-02-22,0.47, -1.56, -11.37, 2.54, 1.89, 8.22, repro,
1998-02-23,2.63, -0.01, -4.14, 2.46, 1.84, 8.04, repro,
1998-02-24,0.88, -1.78, 5.05, 2.46, 1.85, 8.06, repro,
1998-02-25,1.06, -2.16, -2.60, 2.43, 1.83, 8.05, repro,
1998-02-26,-0.06, -0.09, -3.60, 2.64, 2.08, 8.85, repro,
1998-02-27,2.58, 0.55, -19.49, 2.41, 1.91, 8.12, repro,
1998-02-28,1.72, -0.61, -11.46, 2.48, 1.92, 8.33, repro,
1998-03-01,1.92, -0.63, -16.50, 2.64, 1.98, 8.52, repro,
1998-03-02,1.98, -0.60, -21.24, 2.44, 1.86, 8.07, repro,
1998-03-03,3.29, -1.03, -13.28, 2.54, 1.92, 8.49, repro,
1998-03-04,1.33, -1.12, -13.56, 2.32, 1.74, 7.57, repro,
1998-03-05,2.01, -0.92, -12.69, 2.30, 1.76, 7.57, repro,
1998-03-06,3.17, -0.80, -7.32, 2.36, 1.83, 7.86, repro,
1998-03-07,1.66, -1.00, -9.23, 2.42, 1.85, 8.00, repro,
1998-03-08,4.09, -0.38, -9.67, 2.44, 1.89, 8.23, repro,
1998-03-09,2.16, -0.14, -9.25, 2.36, 1.82, 7.85, repro,
1998-03-10,2.25, -0.17, -14.32, 2.45, 1.88, 8.06, repro,
1998-03-11,3.31, 1.63, -10.37, 2.46, 1.89, 8.07, repro,
1998-03-12,7.12, -0.48, -1.40, 2.44, 1.85, 8.00, repro,
1998-03-13,8.06, -0.95, -12.93, 2.72, 2.08, 8.81, repro,
1998-03-14,1.09, -1.99, -16.71, 2.43, 1.87, 8.03, repro,
1998-03-15,0.70, -0.30, -5.38, 2.43, 1.88, 7.94, repro,
1998-03-16,1.69, 0.78, -13.33, 2.40, 1.84, 7.95, repro,
1998-03-17,1.32, 1.12, -11.87, 2.41, 1.84, 7.98, repro,
1998-03-18,0.78, -1.24, -5.42, 2.38, 1.79, 7.78, repro,
1998-03-19,1.76, -0.53, -4.02, 2.38, 1.79, 7.80, repro,
1998-03-20,2.18, 0.18, -9.75, 2.43, 1.87, 8.01, repro,
1998-03-21,2.36, -1.11, -0.66, 2.39, 1.83, 7.96, repro,
1998-03-22,1.57, -2.32, -6.93, 2.38, 1.80, 7.79, repro,
1998-03-23,-3.55, -3.08, -0.20, 2.52, 1.88, 8.17, repro,
1998-03-24,1.11, -2.29, 5.53, 2.46, 1.89, 8.06, repro,
1998-03-25,2.35, -1.61, -7.95, 2.38, 1.77, 7.75, repro,
1998-03-26,2.26, -1.19, -4.01, 2.40, 1.81, 7.83, repro,
1998-03-27,0.14, -0.76, -0.12, 2.53, 1.87, 8.09, repro,
1998-03-28,0.61, -0.76, 1.53, 2.41, 1.79, 7.78, repro,
1998-03-29,0.66, -0.89, -5.39, 2.43, 1.85, 7.87, repro,
1998-03-30,0.84, -2.07, 1.99, 2.42, 1.83, 7.94, repro,
1998-03-31,0.52, -1.27, -8.82, 2.49, 1.93, 8.40, repro,
1998-04-01,1.52, -1.70, -4.66, 2.47, 1.87, 8.02, repro,
1998-04-02,2.63, -1.13, -0.00, 2.53, 1.91, 8.16, repro,
1998-04-03,2.44, -1.41, -11.98, 2.56, 1.92, 8.16, repro,
1998-04-04,1.50, -1.30, -0.47, 2.45, 1.86, 7.96, repro,
1998-04-05,1.55, -2.39, -3.39, 2.40, 1.81, 7.83, repro,
1998-04-06,2.73, -2.22, -4.90, 2.51, 1.93, 8.23, repro,
1998-04-07,1.85, -1.43, -6.87, 2.61, 2.03, 8.63, repro,
1998-04-08,2.48, -2.22, -13.18, 2.51, 1.92, 8.25, repro,
1998-04-09,2.45, -2.21, -5.94, 2.45, 1.87, 8.05, repro,
1998-04-10,-0.93, -3.23, -13.59, 2.49, 1.89, 8.13, repro,
1998-04-11,3.25, -2.99, -5.71, 2.55, 2.00, 8.46, repro,
1998-04-12,1.66, -1.09, -1.52, 2.46, 1.88, 8.03, repro,
1998-04-13,1.29, -2.18, -9.45, 2.42, 1.82, 7.81, repro,
1998-04-14,1.94, -2.88, -12.72, 2.38, 1.82, 7.94, repro,
1998-04-15,0.46, -1.73, -13.93, 2.46, 1.83, 8.07, repro,
1998-04-16,2.26, -0.97, -10.11, 2.39, 1.80, 7.78, repro,
1998-04-17,2.84, -1.23, -8.69, 2.48, 1.87, 7.99, repro,
1998-04-18,2.54, -0.54, -6.14, 2.40, 1.79, 7.84, repro,
1998-04-19,3.02, -1.59, -15.16, 2.35, 1.79, 7.83, repro,
1998-04-20,0.98, -1.57, -0.51, 2.33, 1.77, 7.68, repro,
1998-04-21,2.42, -1.88, -7.13, 2.44, 1.81, 7.80, repro,
1998-04-22,3.46, -3.70, -2.20, 2.51, 1.88, 8.08, repro,
1998-04-23,2.97, -3.86, 10.65, 2.34, 1.75, 7.70, repro,
1998-04-24,2.12, 0.05, -10.78, 2.36, 1.78, 7.83, repro,
1998-04-25,1.91, 0.18, -4.16, 2.37, 1.79, 7.81, repro,
1998-04-26,3.07, -1.49, -9.70, 2.33, 1.77, 7.68, repro,
1998-04-27,2.79, -2.64, -8.11, 2.35, 1.77, 7.73, repro,
1998-04-28,0.63, -2.51, -1.94, 2.32, 1.79, 7.81, repro,
1998-04-29,2.13, -2.05, 5.37, 2.42, 1.82, 7.94, repro,
1998-04-30,3.27, -3.36, 4.25, 2.33, 1.79, 7.86, repro,
1998-05-01,0.00, -1.74, -2.60, 2.34, 1.80, 7.84, repro,
1998-05-02,4.03, -3.49, -3.01, 2.39, 1.80, 7.91, repro,
1998-05-03,0.20, -3.65, 2.95, 2.38, 1.78, 7.80, repro,
1998-05-04,0.61, -4.36, 1.33, 2.46, 1.86, 8.31, repro,
1998-05-05,1.39, -4.38, 3.05, 2.37, 1.77, 7.78, repro,
1998-05-06,0.04, -3.93, 8.78, 2.41, 1.83, 8.03, repro,
1998-05-07,1.31, -4.03, -2.67, 2.39, 1.81, 7.91, repro,
1998-05-08,0.13, -4.23, 4.49, 2.36, 1.78, 7.78, repro,
1998-05-09,1.65, -3.14, -3.16, 2.31, 1.75, 7.67, repro,
1998-05-10,2.62, -2.77, -1.90, 2.32, 1.76, 7.72, repro,
1998-05-11,2.43, -3.37, 3.02, 2.33, 1.77, 7.77, repro,
1998-05-12,1.44, -3.02, 6.87, 2.43, 1.86, 8.03, repro,
1998-05-13,2.79, -3.73, 5.32, 2.33, 1.77, 7.77, repro,
1998-05-14,0.09, -2.32, 3.26, 2.32, 1.78, 7.79, repro,
1998-05-15,2.96, -2.64, 7.65, 2.36, 1.79, 7.89, repro,
1998-05-16,2.48, -3.85, 4.11, 2.35, 1.75, 7.74, repro,
1998-05-17,3.94, -1.75, -2.53, 2.35, 1.78, 7.87, repro,
1998-05-18,3.23, -1.97, -2.42, 2.39, 1.80, 8.04, repro,
1998-05-19,2.35, -3.29, -0.17, 2.34, 1.79, 7.85, repro,
1998-05-20,1.92, -2.53, -0.95, 2.75, 2.04, 8.90, repro,
1998-05-22,3.57, -3.52, 8.90, 4.59, 3.62, 16.39, repro,
1998-05-23,3.88, -1.55, -7.55, 2.44, 1.86, 8.15, repro,
1998-05-24,4.08, -2.11, -5.16, 2.37, 1.78, 7.83, repro,
1998-05-25,4.64, -2.23, -15.36, 2.40, 1.82, 8.01, repro,
1998-05-26,2.51, -3.35, -4.54, 2.52, 1.88, 8.41, repro,
1998-05-27,1.67, -1.33, -2.81, 2.46, 1.84, 8.12, repro,
1998-05-29,2.14, -2.35, -4.39, 2.39, 1.82, 7.90, repro,
1998-05-30,2.38, -2.30, -6.75, 2.41, 1.84, 8.00, repro,
1998-05-31,3.02, -1.81, -4.57, 2.37, 1.78, 7.80, repro,
1998-06-01,1.72, -2.82, -2.06, 2.35, 1.77, 7.76, repro,
1998-06-02,2.83, -2.90, 1.47, 2.32, 1.78, 7.74, repro,
1998-06-03,0.96, -2.67, 1.39, 2.36, 1.79, 7.82, repro,
1998-06-04,1.78, -4.31, 0.49, 2.47, 1.91, 8.32, repro,
1998-06-05,2.16, -3.69, -7.44, 2.35, 1.83, 7.94, repro,
1998-06-06,1.72, -3.45, -7.21, 2.35, 1.78, 7.84, repro,
1998-06-07,0.50, -4.74, -3.94, 2.34, 1.78, 7.77, repro,
1998-06-08,2.11, -3.09, 0.58, 2.46, 1.89, 8.25, repro,
1998-06-09,0.37, -3.51, -0.41, 2.35, 1.78, 7.75, repro,
1998-06-10,0.52, -5.13, 2.67, 2.44, 1.85, 8.05, repro,
1998-06-11,0.46, -3.28, -3.71, 2.33, 1.77, 7.72, repro,
1998-06-12,3.19, -4.46, 4.54, 2.35, 1.77, 7.77, repro,
1998-06-13,0.49, -4.15, 2.50, 2.33, 1.78, 7.71, repro,
1998-06-14,1.18, -5.17, 2.89, 2.32, 1.78, 7.68, repro,
1998-06-15,1.77, -2.40, 7.86, 2.36, 1.83, 7.82, repro,
1998-06-16,2.82, -3.65, 6.80, 2.38, 1.86, 8.14, repro,
1998-06-17,0.30, -4.53, 0.76, 2.32, 1.75, 7.68, repro,
1998-06-18,0.52, -2.29, 3.66, 2.36, 1.78, 7.80, repro,
1998-06-19,0.45, -3.12, -2.34, 2.37, 1.80, 7.80, repro,
1998-06-21,0.98, -2.33, 1.27, 2.34, 1.78, 7.73, repro,
1998-06-22,-0.52, -5.18, 2.05, 2.50, 1.85, 8.22, repro,
1998-06-23,-0.03, -4.72, 4.32, 2.42, 1.82, 8.04, repro,
1998-06-24,1.55, -3.83, 10.38, 2.40, 1.81, 7.86, repro,
1998-06-25,2.11, -4.04, 3.42, 2.47, 1.85, 8.06, repro,
1998-06-26,1.30, -3.61, -0.33, 2.40, 1.86, 7.98, repro,
1998-06-27,2.00, -3.01, -0.21, 2.42, 1.87, 8.13, repro,
1998-06-28,1.62, -3.97, -0.09, 2.33, 1.77, 7.64, repro,
1998-06-29,2.78, -4.29, -3.39, 2.37, 1.82, 7.79, repro,
1998-06-30,2.10, -4.60, 5.16, 2.33, 1.78, 7.72, repro,
1998-07-02,-1.22, -4.32, 5.01, 2.32, 1.78, 7.73, repro,
1998-07-03,0.11, -5.54, 5.20, 2.32, 1.79, 7.75, repro,
1998-07-04,1.12, -3.86, 5.23, 2.34, 1.78, 7.71, repro,
1998-07-05,0.17, -4.20, 5.36, 2.32, 1.77, 7.62, repro,
1998-07-06,1.24, -4.45, 0.14, 2.40, 1.80, 8.03, repro,
1998-07-07,1.60, -3.60, 0.65, 2.41, 1.83, 7.98, repro,
1998-07-08,-3.20, -3.96, -9.16, 2.59, 1.92, 8.45, repro,
1998-07-09,-0.77, -3.73, -3.45, 2.36, 1.80, 7.90, repro,
1998-07-10,-1.80, -3.83, -10.75, 2.38, 1.81, 7.89, repro,
1998-07-11,-1.08, -5.23, -10.64, 2.33, 1.79, 7.78, repro,
1998-07-12,-0.07, -2.59, -18.49, 2.35, 1.77, 7.83, repro,
1998-07-13,-0.50, -3.44, -20.44, 2.32, 1.77, 7.77, repro,
1998-07-14,-3.83, -4.23, -8.97, 2.33, 1.78, 7.82, repro,
1998-07-15,-4.44, -8.75, -2.27, 2.59, 1.99, 8.76, repro,
1998-07-16,0.04, -4.24, 5.52, 2.36, 1.80, 7.79, repro,
1998-07-17,-1.11, -5.84, 6.13, 2.34, 1.78, 7.72, repro,
1998-07-18,0.58, -5.59, 2.54, 2.35, 1.79, 7.83, repro,
1998-07-19,-1.48, -5.17, 9.51, 2.32, 1.76, 7.64, repro,
1998-07-20,0.08, -5.33, 3.45, 2.36, 1.80, 7.83, repro,
1998-07-21,-1.28, -4.69, -0.04, 2.33, 1.76, 7.61, repro,
1998-07-22,0.93, -4.45, 2.71, 2.50, 1.87, 8.26, repro,
1998-07-23,1.10, -4.31, 0.64, 2.48, 1.85, 8.08, repro,
1998-07-24,-1.85, -6.46, 7.36, 3.08, 2.24, 9.85, repro,
1998-07-25,-0.68, -4.97, -6.69, 2.38, 1.83, 8.11, repro,
1998-07-26,1.30, -5.15, -4.16, 2.37, 1.78, 7.87, repro,
1998-07-27,1.08, -5.85, -3.79, 2.46, 1.84, 8.26, repro,
1998-07-28,-0.11, -4.47, 3.42, 2.38, 1.85, 8.06, repro,
1998-07-29,1.11, -6.42, -4.78, 2.35, 1.77, 7.89, repro,
1998-07-30,-0.91, -6.00, 2.42, 2.40, 1.80, 7.99, repro,
1998-07-31,-1.01, -5.89, 2.10, 2.42, 1.86, 8.05, repro,
1998-08-01,-0.21, -5.82, -4.10, 2.36, 1.82, 7.85, repro,
1998-08-02,-0.14, -5.35, -1.24, 2.37, 1.79, 7.93, repro,
1998-08-03,0.00, -4.20, -2.63, 2.35, 1.78, 7.74, repro,
1998-08-04,0.27, -5.90, -0.62, 2.48, 1.88, 8.22, repro,
1998-08-05,-0.86, -6.21, 4.50, 2.37, 1.80, 7.94, repro,
1998-08-06,-1.33, -6.14, 3.56, 2.34, 1.79, 7.73, repro,
1998-08-07,0.45, -5.62, 1.05, 2.35, 1.78, 7.83, repro,
1998-08-08,0.35, -6.36, 10.56, 2.33, 1.77, 7.69, repro,
1998-08-09,-1.25, -6.11, 7.07, 2.36, 1.78, 7.78, repro,
1998-08-10,1.38, -4.96, 3.24, 2.41, 1.82, 8.00, repro,
1998-08-11,0.28, -4.91, 6.43, 2.36, 1.79, 7.80, repro,
1998-08-12,-0.17, -6.39, 7.18, 2.30, 1.78, 7.65, repro,
1998-08-13,1.02, -4.31, -10.24, 2.32, 1.78, 7.74, repro,
1998-08-14,-0.03, -7.01, 3.77, 2.42, 1.84, 8.03, repro,
1998-08-15,0.38, -5.31, 10.77, 2.35, 1.80, 7.82, repro,
1998-08-16,-1.15, -7.13, 12.99, 2.41, 1.82, 7.94, repro,
1998-08-17,0.71, -5.40, -1.07, 2.36, 1.77, 7.72, repro,
1998-08-18,1.27, -4.97, 2.76, 2.30, 1.76, 7.58, repro,
1998-08-19,2.22, -4.99, 7.12, 2.36, 1.80, 7.87, repro,
1998-08-20,1.50, -5.44, 1.70, 2.32, 1.78, 7.69, repro,
1998-08-21,0.69, -4.61, 0.11, 2.35, 1.78, 7.75, repro,
1998-08-27,0.01, -4.25, 3.19, 2.39, 1.82, 7.95, repro,
1998-08-28,0.50, -4.66, 2.98, 2.32, 1.77, 7.70, repro,
1998-08-29,2.24, -4.58, -2.95, 2.31, 1.74, 7.53, repro,
1998-08-30,0.79, -4.83, 6.17, 2.34, 1.79, 7.69, repro,